Flag for Germany Weather past 2 weeks in Gera, Thuringia, Germany

Now
56 °F

Clear.


Feels Like: 55 °F
Forecast: 51 / 74 °F
Wind: 5 mph from Southeast

Location: Gera-Leumnitz

Current Time: Sep 17, 2014 at 2:32:34 AM

Latest Report: Sep 17, 2014 at 2:00 AM


Visibility: 7 mi

Pressure: 30.03 "Hg

Humidity: 92%

Dew point: 54 °F

Location of GeraLocation

Historic Weather in Gera — Graph

°F

Gera temperature yesterday

Maximum temperature yesterday: 72 °F (at 2:00 PM)
Minimum temperature yesterday: 56 °F (at 8:00 AM)
Average temperature yesterday: 63 °F

Past Weeks' High & Low Weather Summary

 TemperatureHumidityPressure
High78 °F (Sep 6, 3:00 PM)99% (Sep 4, 8:00 AM)30.25 "Hg (Sep 4, 8:00 AM)
Low52 °F (Sep 11, 4:00 AM)53% (Sep 6, 5:00 PM)29.85 "Hg (Sep 6, 5:00 PM)
Average60 °F87%30.05 "Hg
* Reported Sep 2 1:00 AM — Sep 17 1:00 AM, Gera, Weather by CustomWeather, © 2014

Note: Actual official high and low records may vary slightly from our data, if they occured in-between our weather recording intervals... More about our weather records

Advertising

Gera weather history for previous 24 hours

 ConditionsComfort  
Time TempWeatherWind HumidityBarometerVisibility
1:00 AM
Sep 17
58 °FPassing clouds.5 mph86%30.03 "Hg9 mi
12:00 AM58 °FOvercast.6 mph86%30.03 "Hg9 mi
11:00 PM
Sep 16
61 °FPassing clouds.6 mph83%30.03 "Hg9 mi
10:00 PM61 °FClear.6 mph82%30.03 "Hg9 mi
9:00 PM63 °FPassing clouds.5 mph80%30.03 "Hg17 mi
8:00 PM65 °FOvercast.6 mph74%30.01 "Hg17 mi
7:00 PM68 °FOvercast.6 mph69%30.00 "Hg22 mi
6:00 PM70 °FOvercast.7 mph62%30.00 "Hg22 mi
5:00 PM72 °FPartly sunny.6 mph59%29.99 "Hg17 mi
4:00 PM72 °FPartly sunny.6 mph56%30.00 "Hg17 mi
3:00 PM72 °FPartly sunny.7 mph56%30.01 "Hg16 mi
2:00 PM72 °FOvercast.6 mph62%30.02 "Hg16 mi
1:00 PM70 °FPartly sunny.5 mph60%30.04 "Hg16 mi
12:00 PM68 °FScattered clouds.5 mph74%30.05 "Hg14 mi
11:00 AM66 °FScattered clouds.3 mph88%30.06 "Hg5 mi
10:00 AM58 °FFog.1 mph99%30.07 "Hg2 mi
9:00 AM56 °FFog.1 mph99%30.07 "Hg1 mi
8:00 AM56 °FFog.1 mph99%30.06 "Hg0 mi
7:00 AM56 °FFog.1 mph99%30.06 "Hg0 mi
6:00 AM56 °FFog.1 mph99%30.05 "Hg0 mi
5:00 AM58 °FPassing clouds.1 mph99%30.05 "Hg0 mi
4:00 AM59 °FOvercast.1 mph99%30.05 "Hg0 mi
3:00 AM59 °FOvercast.2 mph99%30.05 "Hg1 mi
2:00 AM60 °FPassing clouds.2 mph98%30.04 "Hg0 mi
Weather by CustomWeather, © 2014

See weather overviewHow to use our weather pages